Flag for Australia Weather past 2 weeks in Sydney, New South Wales, Australia

Now
57 °F

Clear.


Feels Like: 55 °F
Forecast: 51 / 62 °F
Wind: 9 mph from North

Location: Sydney Airport

Current Time: May 30, 2015 at 1:12:15 AM

Latest Report: May 30, 2015 at 12:30 AM


Visibility: 10 mi

Pressure: 30.18 "Hg

Humidity: 67%

Dew point: 46 °F

Location of SydneyLocation

Historic Weather in Sydney — Graph

°F

Sydney temperature yesterday

Maximum temperature yesterday: 68 °F (at 2:30 PM)
Minimum temperature yesterday: 55 °F (at 11:30 PM)
Average temperature yesterday: 64 °F

Past Weeks' High & Low Weather Summary

 TemperatureHumidityPressure
High77 °F (May 20, 2:00 PM)94% (May 17, 8:30 PM)30.57 "Hg (May 17, 8:30 PM)
Low46 °F (May 24, 4:30 AM)35% (May 27, 1:00 PM)29.92 "Hg (May 20, 1:00 AM)
Average60 °F71%30.27 "Hg
* Reported May 14 11:00 PM — May 29 11:30 PM, Sydney, Weather by CustomWeather, © 2015

Note: Actual official high and low records may vary slightly from our data, if they occured in-between our weather recording intervals... More about our weather records

Advertising

Sydney weather history for previous 24 hours

 ConditionsComfort  
Time TempWeatherWind HumidityBarometerVisibility
11:30 PM
Fri, May 29
55 °FClear.5 mph77%30.18 "Hg10 mi
11:00 PM59 °FClear.7 mph68%30.18 "Hg10 mi
10:30 PM59 °FClear.10 mph72%30.18 "Hg10 mi
10:00 PM61 °FClear.10 mph68%30.18 "Hg10 mi
9:30 PM61 °FClear.7 mph68%30.18 "Hg10 mi
9:00 PM61 °FClear.8 mph68%30.18 "Hg10 mi
8:00 PM61 °FClear.9 mph72%30.18 "Hg10 mi
7:30 PM63 °FClear.8 mph68%30.18 "Hg10 mi
7:00 PM64 °FClear.7 mph60%30.15 "Hg10 mi
6:30 PM64 °FClear.7 mph60%30.15 "Hg10 mi
6:00 PM64 °FClear.8 mph60%30.15 "Hg10 mi
5:30 PM66 °FClear.8 mph56%30.12 "Hg10 mi
5:00 PM66 °FClear.7 mph56%30.12 "Hg10 mi
4:30 PM68 °FClear.12 mph53%30.12 "Hg10 mi
4:00 PM68 °FClear.9 mph56%30.12 "Hg10 mi
3:30 PM68 °FSunny.8 mph53%30.12 "Hg10 mi
3:00 PM68 °FSunny.10 mph53%30.12 "Hg10 mi
2:30 PM68 °FSunny.8 mph56%30.09 "Hg10 mi
1:30 PM66 °FClear.5 mph64%30.09 "HgN/A
1:00 PM66 °FSunny.10 mph64%30.09 "Hg10 mi
12:30 PM66 °FSunny.10 mph64%30.09 "Hg10 mi
12:00 PM66 °FSunny.13 mph64%30.12 "Hg10 mi
11:30 AM66 °FSunny.14 mph68%30.12 "Hg10 mi
11:00 AM66 °FSunny.13 mph68%30.12 "Hg10 mi
10:30 AM66 °FSunny.12 mph64%30.12 "Hg10 mi
10:00 AM66 °FSunny.9 mph68%30.12 "Hg10 mi
9:30 AM64 °FSunny.8 mph73%30.12 "Hg10 mi
9:00 AM63 °FSunny.8 mph77%30.12 "Hg10 mi
8:00 AM63 °FLight rain. Clear.6 mph77%30.12 "HgN/A
7:00 AM61 °FSunny.6 mph88%30.09 "Hg10 mi
6:30 AM63 °FSunny.6 mph73%30.09 "Hg10 mi
6:00 AM63 °FSunny.3 mph73%30.07 "Hg10 mi
5:30 AM63 °FPassing clouds.5 mph73%30.07 "HgN/A
5:00 AM64 °FPassing clouds.6 mph68%30.07 "HgN/A
4:30 AM63 °FClear.9 mph77%30.07 "Hg10 mi
3:30 AM63 °FClear.12 mph77%30.04 "Hg10 mi
3:00 AM63 °FClear.9 mph77%30.07 "Hg10 mi
2:30 AM63 °FClear.9 mph77%30.07 "Hg10 mi
1:30 AM63 °FLight rain. Clear.6 mph77%30.09 "HgN/A
1:00 AM63 °FLight rain. Clear.6 mph77%30.09 "HgN/A
Weather by CustomWeather, © 2015

See weather overviewHow to use our weather pages